When you browse on this site, cookies collect data to enhance your experience and personalize the content and advertising you see.
Visit our Privacy Policy to learn more. By continuing to use the site, you agree to this use of cookies and data.

Hourly Weather Shannon

Today, 24 September, Thursday

Time Temperature Precipitation Wind Pressure Humidity
00:00 +7°C° 1.1 mm 6 mps 742 mmHg 95%
01:00 +6°C° 1.1 mm 7 mps 741 mmHg 94%
02:00 +6°C° 1.1 mm 7 mps 741 mmHg 93%
03:00 +6°C° 0.5 mm 7 mps 740 mmHg 93%
04:00 +6°C° 0.5 mm 7 mps 740 mmHg 92%
05:00 +7°C° 0 mm 5 mps 739 mmHg 95%
06:00 +8°C° 0.5 mm 5 mps 739 mmHg 94%
07:00 +8°C° 0.5 mm 5 mps 740 mmHg 94%
08:00 +8°C° 0.5 mm 5 mps 740 mmHg 93%
09:00 +8°C° 0.2 mm 6 mps 741 mmHg 91%
10:00 +8°C° 0.2 mm 7 mps 741 mmHg 89%
11:00 +8°C° 0 mm 6 mps 742 mmHg 88%
12:00 +9°C° 0.6 mm 6 mps 743 mmHg 86%
13:00 +9°C° 0.6 mm 6 mps 744 mmHg 83%
14:00 +10°C° 0.6 mm 6 mps 745 mmHg 81%
15:00 +10°C° 0.2 mm 6 mps 746 mmHg 82%
16:00 +9°C° 0.2 mm 6 mps 747 mmHg 82%
17:00 +9°C° 0.2 mm 6 mps 749 mmHg 83%
18:00 +8°C° 0.3 mm 6 mps 750 mmHg 85%
19:00 +7°C° 0.3 mm 5 mps 751 mmHg 87%
20:00 +7°C° 0.3 mm 5 mps 752 mmHg 89%
21:00 +7°C° 0.2 mm 5 mps 753 mmHg 90%
22:00 +7°C° 0.2 mm 5 mps 754 mmHg 90%
23:00 +7°C° 0.2 mm 5 mps 755 mmHg 91%

Tomorrow, 25 September, Friday

Time Temperature Precipitation Wind Pressure Humidity
00:00 +7°C° 0.1 mm 5 mps 755 mmHg 91%
01:00 +7°C° 0.1 mm 5 mps 756 mmHg 90%
02:00 +7°C° 0.1 mm 5 mps 757 mmHg 90%
03:00 +7°C° 0.1 mm 5 mps 758 mmHg 89%
04:00 +7°C° 0.1 mm 5 mps 758 mmHg 88%
05:00 +7°C° 0.1 mm 6 mps 759 mmHg 87%
06:00 +7°C° 0 mm 6 mps 760 mmHg 84%
07:00 +8°C° 0 mm 6 mps 761 mmHg 80%
08:00 +9°C° 0 mm 6 mps 762 mmHg 76%
09:00 +10°C° 0 mm 6 mps 762 mmHg 72%
10:00 +10°C° 0 mm 6 mps 763 mmHg 67%
11:00 +11°C° 0 mm 7 mps 763 mmHg 63%
12:00 +11°C° 0 mm 6 mps 763 mmHg 63%
13:00 +11°C° 0 mm 6 mps 764 mmHg 63%
14:00 +11°C° 0 mm 6 mps 764 mmHg 63%
15:00 +10°C° 0 mm 5 mps 764 mmHg 67%
16:00 +10°C° 0 mm 4 mps 764 mmHg 72%
17:00 +9°C° 0 mm 3 mps 764 mmHg 76%
18:00 +8°C° 0 mm 2 mps 765 mmHg 77%
19:00 +7°C° 0 mm 2 mps 765 mmHg 79%
20:00 +8°C° 0 mm 1 mps 765 mmHg 80%
21:00 +8°C° 0 mm 1 mps 765 mmHg 80%
22:00 +7°C° 0 mm 0 mps 765 mmHg 79%
23:00 +7°C° 0 mm 0 mps 764 mmHg 78%

Day after tomorrow, 26 September, Saturday

Time Temperature Precipitation Wind Pressure Humidity
00:00 +7°C° 0 mm 0 mps 764 mmHg 78%
01:00 +8°C° 0 mm 1 mps 764 mmHg 78%
02:00 +8°C° 0 mm 1 mps 764 mmHg 79%
03:00 +8°C° 0 mm 1 mps 763 mmHg 78%
04:00 +7°C° 0 mm 2 mps 763 mmHg 78%
05:00 +6°C° 0 mm 2 mps 763 mmHg 78%
06:00 +7°C° 0 mm 2 mps 763 mmHg 76%
07:00 +8°C° 0 mm 2 mps 764 mmHg 73%
08:00 +8°C° 0 mm 2 mps 764 mmHg 71%
09:00 +9°C° 0 mm 2 mps 764 mmHg 66%
10:00 +12°C° 0 mm 2 mps 764 mmHg 62%
11:00 +13°C° 0 mm 2 mps 764 mmHg 57%
12:00 +13°C° 0 mm 2 mps 764 mmHg 57%
13:00 +13°C° 0 mm 2 mps 764 mmHg 56%
14:00 +14°C° 0 mm 2 mps 764 mmHg 56%
15:00 +13°C° 0 mm 1 mps 764 mmHg 64%
16:00 +11°C° 0 mm 1 mps 764 mmHg 71%
17:00 +10°C° 0 mm 1 mps 764 mmHg 78%
18:00 +9°C° 0 mm 1 mps 764 mmHg 82%
19:00 +8°C° 0 mm 1 mps 765 mmHg 86%
20:00 +7°C° 0 mm 1 mps 765 mmHg 89%
21:00 +7°C° 0 mm 1 mps 765 mmHg 90%
22:00 +6°C° 0 mm 1 mps 765 mmHg 91%
23:00 +6°C° 0 mm 1 mps 765 mmHg 91%

27 September, Sunday

Time Temperature Precipitation Wind Pressure Humidity
00:00 +6°C° 0 mm 1 mps 764 mmHg 91%
01:00 +6°C° 0 mm 1 mps 764 mmHg 91%
02:00 +6°C° 0 mm 1 mps 764 mmHg 91%
03:00 +6°C° 0 mm 1 mps 763 mmHg 91%
04:00 +6°C° 0 mm 1 mps 763 mmHg 91%
05:00 +6°C° 0 mm 1 mps 763 mmHg 91%
06:00 +6°C° 0 mm 2 mps 763 mmHg 88%
07:00 +7°C° 0 mm 2 mps 763 mmHg 84%
08:00 +9°C° 0 mm 2 mps 762 mmHg 81%
09:00 +10°C° 0 mm 2 mps 762 mmHg 79%
10:00 +12°C° 0 mm 2 mps 762 mmHg 77%
11:00 +13°C° 0 mm 3 mps 761 mmHg 75%
12:00 +13°C° 0 mm 3 mps 761 mmHg 77%
13:00 +14°C° 0 mm 3 mps 761 mmHg 79%
14:00 +14°C° 0 mm 3 mps 760 mmHg 81%
15:00 +14°C° 0 mm 3 mps 760 mmHg 84%
16:00 +13°C° 0 mm 3 mps 759 mmHg 88%
17:00 +13°C° 0 mm 3 mps 759 mmHg 91%
18:00 +13°C° 0.3 mm 3 mps 759 mmHg 93%
19:00 +13°C° 0.3 mm 3 mps 759 mmHg 95%
20:00 +13°C° 0.3 mm 3 mps 758 mmHg 97%
21:00 +13°C° 0.2 mm 3 mps 758 mmHg 97%
22:00 +14°C° 0.2 mm 3 mps 758 mmHg 97%
23:00 +14°C° 0.2 mm 3 mps 757 mmHg 97%

28 September, Monday

Time Temperature Precipitation Wind Pressure Humidity
00:00 +14°C° 0.4 mm 3 mps 757 mmHg 97%
01:00 +14°C° 0.4 mm 3 mps 757 mmHg 97%
02:00 +14°C° 0.4 mm 3 mps 756 mmHg 98%
03:00 +14°C° 0.3 mm 3 mps 756 mmHg 97%
04:00 +14°C° 0.3 mm 3 mps 756 mmHg 97%
05:00 +14°C° 0.3 mm 3 mps 756 mmHg 97%
06:00 +14°C° 0.1 mm 3 mps 756 mmHg 95%
07:00 +14°C° 0.1 mm 3 mps 757 mmHg 92%
08:00 +14°C° 0.1 mm 3 mps 757 mmHg 89%
09:00 +14°C° 0.2 mm 4 mps 757 mmHg 86%
10:00 +14°C° 0.2 mm 5 mps 757 mmHg 82%
11:00 +15°C° 0.2 mm 5 mps 758 mmHg 79%
12:00 +15°C° 0.1 mm 5 mps 758 mmHg 77%
13:00 +14°C° 0.1 mm 5 mps 758 mmHg 74%
14:00 +14°C° 0.1 mm 5 mps 758 mmHg 72%
15:00 +13°C° 0.1 mm 4 mps 758 mmHg 77%
16:00 +12°C° 0.1 mm 3 mps 758 mmHg 82%
17:00 +11°C° 0.1 mm 3 mps 759 mmHg 86%
18:00 +10°C° 0 mm 2 mps 759 mmHg 88%
19:00 +9°C° 0 mm 2 mps 760 mmHg 90%
20:00 +8°C° 0 mm 2 mps 760 mmHg 92%
21:00 +8°C° 0 mm 2 mps 760 mmHg 92%
22:00 +8°C° 0 mm 2 mps 760 mmHg 92%
23:00 +8°C° 0 mm 2 mps 760 mmHg 93%

29 September, Tuesday

Time Temperature Precipitation Wind Pressure Humidity
00:00 +8°C° 0 mm 2 mps 760 mmHg 93%
01:00 +7°C° 0 mm 2 mps 760 mmHg 94%
02:00 +7°C° 0 mm 2 mps 760 mmHg 94%
03:00 +7°C° 0 mm 2 mps 760 mmHg 94%
04:00 +7°C° 0 mm 2 mps 760 mmHg 93%
05:00 +7°C° 0 mm 2 mps 760 mmHg 92%
06:00 +8°C° 0 mm 2 mps 759 mmHg 89%
07:00 +9°C° 0 mm 2 mps 759 mmHg 86%
08:00 +12°C° 0 mm 2 mps 759 mmHg 83%
09:00 +12°C° 0.2 mm 3 mps 759 mmHg 80%
10:00 +13°C° 0.2 mm 3 mps 759 mmHg 76%
11:00 +14°C° 0.2 mm 4 mps 758 mmHg 73%
12:00 +14°C° 0.4 mm 3 mps 758 mmHg 76%
13:00 +14°C° 0.4 mm 3 mps 758 mmHg 80%
14:00 +13°C° 0.4 mm 3 mps 757 mmHg 83%
15:00 +13°C° 0.1 mm 2 mps 757 mmHg 86%
16:00 +12°C° 0.1 mm 2 mps 757 mmHg 88%
17:00 +12°C° 0.1 mm 1 mps 756 mmHg 91%
18:00 +11°C° 0 mm 1 mps 756 mmHg 92%
19:00 +9°C° 0 mm 2 mps 756 mmHg 93%
20:00 +8°C° 0 mm 2 mps 756 mmHg 95%
21:00 +8°C° 0 mm 2 mps 755 mmHg 95%
22:00 +9°C° 0 mm 3 mps 754 mmHg 95%
23:00 +9°C° 0 mm 3 mps 753 mmHg 95%
Show more